FW6296 Weather Reports


Display with metric or nautical units.
time (UTC)temp
F
wind
direction
speed
MPH
gust
MPH
rain 1hr
in
rain 24hr
in
rain mn
in
humidity
%
barometer
mb
20260503045017 43 310 1.0 5.0 0.00 0.00 0.00 66 1016.4
20260503044018 43 19 0.0 3.0 0.00 0.00 0.00 66 1016.5
20260503043023 43 42 1.0 2.0 0.00 0.00 0.00 66 1016.4
20260503042104 43 55 0.0 3.0 0.00 0.00 0.00 66 1016.5
20260503041016 43 246 0.0 4.0 0.00 0.00 0.00 65 1016.5
20260503040016 43 133 0.0 7.0 0.00 0.00 0.00 65 1016.5
20260503035016 43 77 0.0 2.0 0.00 0.00 0.00 66 1016.5
20260503034016 44 360 0.0 3.0 0.00 0.00 0.00 65 1016.6
20260503033016 44 67 0.0 4.0 0.00 0.00 0.00 64 1016.5
20260503032016 45 37 0.0 3.0 0.00 0.00 0.00 63 1016.6
20260503031016 46 67 0.0 3.0 0.00 0.00 0.00 61 1016.6
20260503030038 46 49 0.0 2.0 0.00 0.00 0.00 59 1016.7
20260503025037 47 98 0.0 2.0 0.00 0.00 0.00 58 1016.7
20260503024017 47 61 0.0 2.0 0.00 0.00 0.00 58 1016.7
20260503023017 46 343 0.0 2.0 0.00 0.00 0.00 59 1016.6
20260503022017 47 75 0.0 2.0 0.00 0.00 0.00 60 1016.6
20260503021017 47 17 0.0 2.0 0.00 0.00 0.00 59 1016.6
20260503020038 47 7 0.0 1.0 0.00 0.00 0.00 59 1016.6
20260503015018 48 3 0.0 1.0 0.00 0.00 0.00 59 1016.6
20260503014018 48 0.0 0.0 0.00 0.00 0.00 57 1016.5
20260503013017 49 117 0.0 0.0 0.00 0.00 0.00 55 1016.4
20260503012015 50 199 0.0 0.0 0.00 0.00 0.00 54 1016.3
20260503011016 51 0.0 0.0 0.00 0.00 0.00 52 1016.3
20260503010018 52 71 0.0 1.0 0.00 0.00 0.00 50 1016.3
20260503005016 53 0.0 0.0 0.00 0.00 0.00 48 1016.4
20260503004016 53 312 1.0 2.0 0.00 0.00 0.00 46 1016.4
20260503003017 54 320 2.0 3.0 0.00 0.00 0.00 45 1016.4
20260503002017 54 318 2.0 4.0 0.00 0.00 0.00 44 1016.4
20260503001016 55 318 2.0 5.0 0.00 0.00 0.00 43 1016.5
20260503000017 55 313 3.0 7.0 0.00 0.00 0.00 42 1016.4
20260502235017 56 311 3.0 7.0 0.00 0.00 0.00 42 1016.5
20260502234018 56 309 3.0 6.0 0.00 0.00 0.00 42 1016.5
20260502233018 57 308 4.0 7.0 0.00 0.00 0.00 42 1016.6
20260502232018 57 305 3.0 6.0 0.00 0.00 0.00 41 1016.7
20260502231018 57 304 3.0 6.0 0.00 0.00 0.00 41 1016.7
20260502230016 56 310 2.0 5.0 0.00 0.00 0.00 42 1016.7
20260502225019 57 321 2.0 5.0 0.00 0.00 0.00 42 1016.8
20260502224015 56 325 2.0 4.0 0.00 0.00 0.00 43 1016.8
20260502223016 55 314 2.0 4.0 0.00 0.00 0.00 43 1016.8
20260502222016 55 312 3.0 5.0 0.00 0.00 0.00 43 1016.8
20260502221036 56 339 2.0 6.0 0.00 0.00 0.00 43 1016.8
20260502220016 56 9 3.0 6.0 0.00 0.00 0.00 43 1016.9
20260502215016 56 326 2.0 5.0 0.00 0.00 0.00 43 1017.0
20260502214018 56 332 2.0 7.0 0.00 0.00 0.00 43 1017.0
20260502213037 57 325 4.0 9.0 0.00 0.00 0.00 42 1017.0
20260502212017 58 308 3.0 9.0 0.00 0.00 0.00 42 1017.1
20260502211017 58 327 3.0 8.0 0.00 0.00 0.00 41 1017.2
20260502210017 57 310 2.0 5.0 0.00 0.00 0.00 43 1017.2
20260502205018 57 312 4.0 7.0 0.00 0.00 0.00 42 1017.4
20260502204018 56 319 3.0 8.0 0.00 0.00 0.00 42 1017.4
20260502203024 56 326 3.0 7.0 0.00 0.00 0.00 41 1017.6
20260502202020 56 353 3.0 8.0 0.00 0.00 0.00 42 1017.7
20260502201015 56 316 5.0 10.0 0.00 0.00 0.00 42 1017.8
20260502200020 56 314 3.0 10.0 0.00 0.00 0.00 42 1017.9
20260502195016 56 310 3.0 7.0 0.00 0.00 0.00 43 1018.0
20260502194036 55 86 2.0 6.0 0.00 0.00 0.00 42 1018.1
20260502193016 55 315 3.0 8.0 0.00 0.00 0.00 43 1018.3
20260502192016 54 321 3.0 6.0 0.00 0.00 0.00 44 1018.5
20260502191017 54 358 3.0 7.0 0.00 0.00 0.00 43 1018.5
20260502190016 53 352 2.0 5.0 0.00 0.00 0.00 42 1018.6
20260502185017 54 322 3.0 8.0 0.00 0.00 0.00 43 1018.6
20260502184017 54 4 2.0 5.0 0.00 0.00 0.00 43 1018.8
20260502183017 53 319 3.0 9.0 0.00 0.00 0.00 45 1018.9
20260502182017 54 8 2.0 6.0 0.00 0.00 0.00 43 1019.0
20260502181018 53 329 4.0 7.0 0.00 0.00 0.00 45 1019.0
20260502164016 50 348 2.0 6.0 0.00 0.00 0.00 45 1019.7
20260502163016 51 339 2.0 5.0 0.00 0.00 0.00 47 1019.9
20260502162037 51 319 4.0 7.0 0.00 0.00 0.00 46 1019.9
20260502161036 51 349 3.0 9.0 0.00 0.00 0.00 45 1019.9
20260502152017 50 330 2.0 7.0 0.00 0.00 0.00 48 1020.1
20260502151017 49 44 1.0 5.0 0.00 0.00 0.00 46 1020.1
20260502123017 42 329 0.0 3.0 0.00 0.00 0.00 75 1019.9
20260502122017 40 79 0.0 1.0 0.00 0.00 0.00 78 1019.8
20260502121017 38 35 0.0 1.0 0.00 0.00 0.00 82 1019.8
20260502115018 34 78 0.0 1.0 0.00 0.00 0.00 92 1019.5
20260502114018 33 0.0 0.0 0.00 0.00 0.00 96 1019.4
20260502113018 33 0.0 0.0 0.00 0.00 0.00 98 1019.3
20260502112027 31 0.0 0.0 0.00 0.00 0.00 99 1019.2
20260502111027 30 328 0.0 0.0 0.00 0.00 0.00 98 1019.1
20260502110028 29 29 0.0 0.0 0.00 0.00 0.00 99 1019.0
20260502105028 29 0.0 0.0 0.00 0.00 0.00 98 1019.0
20260502104048 29 0.0 0.0 0.00 0.00 0.00 98 1019.0
20260502103048 29 0.0 0.0 0.00 0.00 0.00 98 1018.9
20260502102028 29 0.0 0.0 0.00 0.00 0.00 98 1018.9
20260502101048 29 0.0 0.0 0.00 0.00 0.00 98 1018.9
20260502091029 30 0.0 0.0 0.00 0.00 0.00 96 1018.8
20260502071017 34 0.0 0.0 0.00 0.00 0.00 89 1018.9
20260502070017 35 0.0 0.0 0.00 0.00 0.00 88 1019.0
20260502065116 35 0.0 0.0 0.00 0.00 0.00 87 1019.1
20260502064016 35 0.0 0.0 0.00 0.00 0.00 87 1019.2
20260502063016 35 302 0.0 0.0 0.00 0.00 0.00 87 1019.2
20260502062016 35 357 0.0 0.0 0.00 0.00 0.00 85 1019.2
20260502061016 35 0.0 0.0 0.00 0.00 0.00 85 1019.2
20260502060017 36 107 0.0 0.0 0.00 0.00 0.00 84 1019.3
20260502055057 36 0.0 0.0 0.00 0.00 0.00 82 1019.3
20260502054017 37 0.0 0.0 0.00 0.00 0.00 80 1019.4
20260502053019 38 81 0.0 1.0 0.00 0.00 0.00 79 1019.4
20260502052017 38 81 0.0 1.0 0.00 0.00 0.00 78 1019.4
20260502051019 38 190 0.0 0.0 0.00 0.00 0.00 78 1019.4
20260502050018 38 167 0.0 1.0 0.00 0.00 0.00 77 1019.5